Aérodrome :
LOGIN :

S'inscrire | Disclaimer

   EN    FR    IT 

 










Légende :    VFR   VFR Marginal   IFR   IFR Intensif   IFR Très Intensif
Visi : 
Plafond : 
>= 8 km
>= 3000ft
5 à 8 km
1000 à 3000 ft
1500m à 5 km
500 à 1000 ft
800 à 1500m
200 à 500 ft
< 800m
< 200 ft
Symboles :   Orages  Brouillard  Fortes neiges  Fortes précipitations  Vent > 20 kt
SIGMETs :   Divers  Orages  Givrage  Turbulence  Onde Orograph.  Cendres Volcan.






- Altitude de l'aérodrome : 273 ft


EGXT - RAF Wittering Stamford

DERNIER METAR :
  • 210450Z AUTO 02009KT 5000 HZ SCT006/// SCT180/// 06/05 Q1019

METARs EXPIRÉS :
  • 210350Z AUTO 03008KT 2500 BR BKN170/// 06/05 Q1019
  • 210250Z AUTO 03009KT 3700 BR BKN180/// 06/06 Q1019

TAF TAF EGXT
Valide du 21 à 06h jusqu'au 21 à 15h UTC


210415Z 2106/2115 03010KT 4000 BR BKN006
BECMG 2106/2109 9999 NSW FEW022 BKN035
TEMPO 2109/2110 SCT022



MET'MAP, la Météo Aéronautique d'un coup d'oeil ! - Copyright ORBIFLY Décembre 2007 - Disclaimer

ORBIFLY MET'MAP TEAM :

Programmation & Développement : Alexandra Zaïnal
Sur une idée originale de : Baudouin d'Aumeries
Assistance à la programmation : Marc-Olivier Méhu
Soutien technique & logistique : Manuel Goepfert

Contact : metmap@orbifly.com




SOURCES & CREDITS :

   NOAA